Time,TemperatureF,DewpointF,PressureIn,WindDirection,WindDirectionDegrees,WindSpeedMPH,WindSpeedGustMPH,Humidity,HourlyPrecipIn,Conditions,Clouds,dailyrainin,SolarRadiationWatts/m^2,SoftwareType,DateUTC
2013-01-24 00:03:00,30.0,20.0,30.37,SSW,204,2.0,7.0,65,0.00,,,0.00,0.000000,,2013-01-24 05:03:00,
2013-01-24 00:33:00,37.0,25.0,30.35,WNW,303,7.0,20.0,61,0.00,,,0.00,0.000000,,2013-01-24 05:33:00,
2013-01-24 00:43:00,37.0,25.0,30.35,WNW,303,7.0,20.0,61,0.00,,,0.00,0.000000,,2013-01-24 05:43:00,
2013-01-24 00:53:00,37.0,25.0,30.35,WNW,303,7.0,20.0,61,0.00,,,0.00,0.000000,,2013-01-24 05:53:00,
2013-01-24 01:03:00,37.0,25.0,30.35,WNW,303,7.0,20.0,61,0.00,,,0.00,0.000000,,2013-01-24 06:03:00,
2013-01-24 01:33:00,42.0,27.0,30.33,WNW,296,13.0,34.0,54,0.00,,,0.00,0.000000,,2013-01-24 06:33:00,
2013-01-24 01:42:00,42.0,27.0,30.33,WNW,296,13.0,34.0,54,0.00,,,0.00,0.000000,,2013-01-24 06:42:00,
2013-01-24 01:53:00,42.0,27.0,30.33,WNW,296,13.0,34.0,54,0.00,,,0.00,0.000000,,2013-01-24 06:53:00,
2013-01-24 02:03:00,42.0,27.0,30.33,WNW,296,13.0,34.0,54,0.00,,,0.00,0.000000,,2013-01-24 07:03:00,
2013-01-24 02:34:00,44.0,29.0,30.32,NW,309,13.0,36.0,55,0.00,,,0.00,0.000000,,2013-01-24 07:34:00,
2013-01-24 02:43:00,44.0,29.0,30.32,NW,309,13.0,36.0,55,0.00,,,0.00,0.000000,,2013-01-24 07:43:00,
2013-01-24 02:53:00,44.0,29.0,30.32,NW,309,13.0,36.0,55,0.00,,,0.00,0.000000,,2013-01-24 07:53:00,
2013-01-24 03:02:00,44.0,29.0,30.32,NW,309,13.0,36.0,55,0.00,,,0.00,0.000000,,2013-01-24 08:02:00,
2013-01-24 03:33:00,43.0,28.0,30.32,NW,310,17.0,42.0,56,0.00,,,0.00,0.000000,,2013-01-24 08:33:00,
2013-01-24 03:43:00,43.0,28.0,30.32,NW,310,17.0,42.0,56,0.00,,,0.00,0.000000,,2013-01-24 08:43:00,
2013-01-24 03:53:00,43.0,28.0,30.32,NW,310,17.0,42.0,56,0.00,,,0.00,0.000000,,2013-01-24 08:53:00,
2013-01-24 04:03:00,43.0,28.0,30.32,NW,310,17.0,42.0,56,0.00,,,0.00,0.000000,,2013-01-24 09:03:00,
2013-01-24 04:34:00,40.0,26.0,30.34,NW,307,10.0,37.0,56,0.00,,,0.00,0.000000,,2013-01-24 09:34:00,
2013-01-24 04:43:00,40.0,26.0,30.34,NW,307,10.0,37.0,56,0.00,,,0.00,0.000000,,2013-01-24 09:43:00,
2013-01-24 04:53:00,40.0,26.0,30.34,NW,307,10.0,37.0,56,0.00,,,0.00,0.000000,,2013-01-24 09:53:00,
2013-01-24 05:03:00,40.0,26.0,30.34,NW,307,10.0,37.0,56,0.00,,,0.00,0.000000,,2013-01-24 10:03:00,
2013-01-24 05:34:00,38.0,26.0,30.36,WSW,257,6.0,33.0,61,0.00,,,0.00,0.000000,,2013-01-24 10:34:00,
2013-01-24 05:43:00,38.0,26.0,30.36,WSW,257,6.0,33.0,61,0.00,,,0.00,0.000000,,2013-01-24 10:43:00,
2013-01-24 05:53:00,38.0,26.0,30.36,WSW,257,6.0,33.0,61,0.00,,,0.00,0.000000,,2013-01-24 10:53:00,
2013-01-24 06:03:00,38.0,26.0,30.36,WSW,257,6.0,33.0,61,0.00,,,0.00,0.000000,,2013-01-24 11:03:00,
2013-01-24 06:34:00,35.0,22.0,30.38,WSW,248,6.0,24.0,59,0.00,,,0.00,0.000000,,2013-01-24 11:34:00,
2013-01-24 06:43:00,35.0,22.0,30.38,WSW,248,6.0,24.0,59,0.00,,,0.00,0.000000,,2013-01-24 11:43:00,
2013-01-24 06:53:00,35.0,22.0,30.38,WSW,248,6.0,24.0,59,0.00,,,0.00,0.000000,,2013-01-24 11:53:00,
2013-01-24 07:03:00,35.0,22.0,30.38,WSW,248,6.0,24.0,59,0.00,,,0.00,0.000000,,2013-01-24 12:03:00,
2013-01-24 07:33:00,32.0,19.0,30.42,NW,318,6.0,23.0,57,0.00,,,0.00,0.000000,,2013-01-24 12:33:00,
2013-01-24 07:43:00,32.0,19.0,30.42,NW,318,6.0,23.0,57,0.00,,,0.00,0.000000,,2013-01-24 12:43:00,
2013-01-24 07:53:00,32.0,19.0,30.42,NW,318,6.0,23.0,57,0.00,,,0.00,0.000000,,2013-01-24 12:53:00,
2013-01-24 08:03:00,32.0,19.0,30.42,NW,318,6.0,23.0,57,0.00,,,0.00,0.000000,,2013-01-24 13:03:00,
2013-01-24 08:33:00,32.0,13.0,30.46,ESE,120,7.0,25.0,44,0.00,,,0.00,4.000000,,2013-01-24 13:33:00,
2013-01-24 08:43:00,32.0,13.0,30.46,ESE,120,7.0,25.0,44,0.00,,,0.00,4.000000,,2013-01-24 13:43:00,
2013-01-24 08:53:00,32.0,13.0,30.46,ESE,120,7.0,25.0,44,0.00,,,0.00,4.000000,,2013-01-24 13:53:00,
2013-01-24 09:03:00,32.0,13.0,30.46,ESE,120,7.0,25.0,44,0.00,,,0.00,4.000000,,2013-01-24 14:03:00,
2013-01-24 09:33:00,34.0,14.0,30.49,SW,226,5.0,24.0,44,0.00,,,0.00,119.000000,,2013-01-24 14:33:00,
2013-01-24 09:43:00,34.0,14.0,30.49,SW,226,5.0,24.0,44,0.00,,,0.00,119.000000,,2013-01-24 14:43:00,
2013-01-24 09:54:00,34.0,14.0,30.49,SW,226,5.0,24.0,44,0.00,,,0.00,119.000000,,2013-01-24 14:54:00,
2013-01-24 10:04:00,34.0,14.0,30.49,SW,226,5.0,24.0,44,0.00,,,0.00,119.000000,,2013-01-24 15:04:00,
2013-01-24 10:33:00,36.0,14.0,30.52,South,190,7.0,25.0,40,0.00,,,0.00,283.000000,,2013-01-24 15:33:00,
2013-01-24 10:43:00,36.0,14.0,30.52,South,190,7.0,25.0,40,0.00,,,0.00,283.000000,,2013-01-24 15:43:00,
2013-01-24 10:53:00,36.0,14.0,30.52,South,190,7.0,25.0,40,0.00,,,0.00,283.000000,,2013-01-24 15:53:00,
2013-01-24 11:04:00,36.0,14.0,30.52,South,190,7.0,25.0,40,0.00,,,0.00,283.000000,,2013-01-24 16:04:00,
2013-01-24 11:33:00,38.0,13.0,30.55,South,177,7.0,27.0,35,0.00,,,0.00,422.000000,,2013-01-24 16:33:00,
2013-01-24 11:43:00,38.0,13.0,30.55,South,177,7.0,27.0,35,0.00,,,0.00,422.000000,,2013-01-24 16:43:00,
2013-01-24 12:03:00,38.0,13.0,30.55,South,177,7.0,27.0,35,0.00,,,0.00,422.000000,,2013-01-24 17:03:00,
2013-01-24 12:33:00,37.0,10.0,30.58,NNW,330,7.0,24.0,32,0.00,,,0.00,495.000000,,2013-01-24 17:33:00,
2013-01-24 12:43:00,37.0,10.0,30.58,NNW,330,7.0,24.0,32,0.00,,,0.00,495.000000,,2013-01-24 17:43:00,
2013-01-24 12:53:00,37.0,10.0,30.58,NNW,330,7.0,24.0,32,0.00,,,0.00,495.000000,,2013-01-24 17:53:00,
2013-01-24 13:03:00,37.0,10.0,30.58,NNW,330,7.0,24.0,32,0.00,,,0.00,495.000000,,2013-01-24 18:03:00,
2013-01-24 13:33:00,38.0,6.0,30.58,WNW,296,7.0,25.0,26,0.00,,,0.00,553.000000,,2013-01-24 18:33:00,
2013-01-24 13:43:00,38.0,6.0,30.58,WNW,296,7.0,25.0,26,0.00,,,0.00,553.000000,,2013-01-24 18:43:00,
2013-01-24 13:53:00,38.0,6.0,30.58,WNW,296,7.0,25.0,26,0.00,,,0.00,553.000000,,2013-01-24 18:53:00,
2013-01-24 14:02:00,38.0,6.0,30.58,WNW,296,7.0,25.0,26,0.00,,,0.00,553.000000,,2013-01-24 19:02:00,
2013-01-24 14:33:00,39.0,7.0,30.58,NW,304,9.0,23.0,26,0.00,,,0.00,532.000000,,2013-01-24 19:33:00,
2013-01-24 14:42:00,39.0,7.0,30.58,NW,304,9.0,23.0,26,0.00,,,0.00,532.000000,,2013-01-24 19:42:00,
2013-01-24 14:53:00,39.0,7.0,30.58,NW,304,9.0,23.0,26,0.00,,,0.00,532.000000,,2013-01-24 19:53:00,
2013-01-24 15:02:00,39.0,7.0,30.58,NW,304,9.0,23.0,26,0.00,,,0.00,532.000000,,2013-01-24 20:02:00,
2013-01-24 15:33:00,40.0,1.0,30.60,WNW,299,8.0,20.0,19,0.00,,,-99.99,387.000000,,2013-01-24 20:33:00,
2013-01-24 15:43:00,40.0,1.0,30.60,WNW,299,8.0,20.0,19,0.00,,,-99.99,387.000000,,2013-01-24 20:43:00,
2013-01-24 15:53:00,40.0,1.0,30.60,WNW,299,8.0,20.0,19,0.00,,,-99.99,387.000000,,2013-01-24 20:53:00,
2013-01-24 16:03:00,40.0,1.0,30.60,WNW,299,8.0,20.0,19,0.00,,,-99.99,387.000000,,2013-01-24 21:03:00,
2013-01-24 16:33:00,35.0,-2.0,30.61,WNW,287,9.0,17.0,20,0.00,,,0.00,104.000000,,2013-01-24 21:33:00,
2013-01-24 16:43:00,35.0,-2.0,30.61,WNW,287,9.0,17.0,20,0.00,,,0.00,104.000000,,2013-01-24 21:43:00,
2013-01-24 16:53:00,35.0,-2.0,30.61,WNW,287,9.0,17.0,20,0.00,,,0.00,104.000000,,2013-01-24 21:53:00,
2013-01-24 17:03:00,35.0,-2.0,30.61,WNW,287,9.0,17.0,20,0.00,,,0.00,104.000000,,2013-01-24 22:03:00,
2013-01-24 17:33:00,33.0,0.0,30.63,WNW,294,9.0,18.0,24,0.00,,,0.00,151.000000,,2013-01-24 22:33:00,
2013-01-24 17:42:00,33.0,0.0,30.63,WNW,294,9.0,18.0,24,0.00,,,0.00,151.000000,,2013-01-24 22:42:00,
2013-01-24 17:53:00,33.0,0.0,30.63,WNW,294,9.0,18.0,24,0.00,,,0.00,151.000000,,2013-01-24 22:53:00,
2013-01-24 18:03:00,33.0,0.0,30.63,WNW,294,9.0,18.0,24,0.00,,,0.00,151.000000,,2013-01-24 23:03:00,
2013-01-24 18:32:00,27.0,1.0,30.64,NNW,336,2.0,14.0,32,0.00,,,0.00,31.000000,,2013-01-24 23:32:00,
2013-01-24 18:43:00,27.0,1.0,30.64,NNW,336,2.0,14.0,32,0.00,,,0.00,31.000000,,2013-01-24 23:43:00,
2013-01-24 18:52:00,27.0,1.0,30.64,NNW,336,2.0,14.0,32,0.00,,,0.00,31.000000,,2013-01-24 23:52:00,
2013-01-24 19:02:00,27.0,1.0,30.64,NNW,336,2.0,14.0,32,0.00,,,0.00,31.000000,,2013-01-25 00:02:00,
2013-01-24 19:32:00,25.0,2.0,30.66,NE,48,1.0,6.0,37,0.00,,,0.00,0.000000,,2013-01-25 00:32:00,
2013-01-24 19:42:00,25.0,2.0,30.66,NE,48,1.0,6.0,37,0.00,,,0.00,0.000000,,2013-01-25 00:42:00,
2013-01-24 19:53:00,25.0,2.0,30.66,NE,48,1.0,6.0,37,0.00,,,0.00,0.000000,,2013-01-25 00:53:00,
2013-01-24 20:02:00,25.0,2.0,30.66,NE,48,1.0,6.0,37,0.00,,,0.00,0.000000,,2013-01-25 01:02:00,
2013-01-24 20:32:00,24.0,3.0,30.65,South,182,1.0,3.0,40,0.00,,,0.00,0.000000,,2013-01-25 01:32:00,
2013-01-24 20:43:00,24.0,3.0,30.65,South,182,1.0,3.0,40,0.00,,,0.00,0.000000,,2013-01-25 01:43:00,
2013-01-24 20:52:00,24.0,3.0,30.65,South,182,1.0,3.0,40,0.00,,,0.00,0.000000,,2013-01-25 01:52:00,
2013-01-24 21:03:00,24.0,3.0,30.65,South,182,1.0,3.0,40,0.00,,,0.00,0.000000,,2013-01-25 02:03:00,
2013-01-24 21:33:00,23.0,3.0,30.63,ESE,109,2.0,3.0,41,0.00,,,0.00,0.000000,,2013-01-25 02:33:00,
2013-01-24 21:43:00,23.0,3.0,30.63,ESE,109,2.0,3.0,41,0.00,,,0.00,0.000000,,2013-01-25 02:43:00,
2013-01-24 21:53:00,23.0,3.0,30.63,ESE,109,2.0,3.0,41,0.00,,,0.00,0.000000,,2013-01-25 02:53:00,
2013-01-24 22:02:00,23.0,3.0,30.63,ESE,109,2.0,3.0,41,0.00,,,0.00,0.000000,,2013-01-25 03:02:00,
2013-01-24 22:33:00,22.0,3.0,30.65,East,101,3.0,4.0,43,0.00,,,-99.99,0.000000,,2013-01-25 03:33:00,
2013-01-24 22:42:00,22.0,3.0,30.65,East,101,3.0,4.0,43,0.00,,,-99.99,0.000000,,2013-01-25 03:42:00,
2013-01-24 22:53:00,22.0,3.0,30.65,East,101,3.0,4.0,43,0.00,,,-99.99,0.000000,,2013-01-25 03:53:00,
2013-01-24 23:02:00,22.0,3.0,30.65,East,101,3.0,4.0,43,0.00,,,-99.99,0.000000,,2013-01-25 04:02:00,
2013-01-24 23:32:00,25.0,4.0,30.66,SE,145,4.0,9.0,40,0.00,,,0.00,0.000000,,2013-01-25 04:32:00,
2013-01-24 23:42:00,25.0,4.0,30.66,SE,145,4.0,9.0,40,0.00,,,0.00,0.000000,,2013-01-25 04:42:00,
2013-01-24 23:52:00,25.0,4.0,30.66,SE,145,4.0,9.0,40,0.00,,,0.00,0.000000,,2013-01-25 04:52:00,